Theta_e
309 311 311 312 312 312 314 314 313 311 310 309 309 310 310 311 311 308 309 309 309 309 311 312 311 311 312 313 314 311 315 331 340 341 342 341 341 342 342 344 344 338 335 335 336 335 335 334 333 333 333 332 332 333 333 334 335 334 335 335 335 334 333 333 333 333 333 333 333 333 333 334 333 333 334 333 334 333 333 333 332 332 333 333 333 333
310 312 313 313 313 314 316 316 314 312 311 310 310 311 311 311 311 309 309 309 308 309 311 312 311 312 314 314 315 313 312 321 333 340 341 341 341 341 342 344 344 339 334 334 335 336 336 335 334 334 334 333 333 333 333 333 334 334 335 336 335 335 334 333 333 333 333 334 334 334 334 334 334 334 334 334 334 333 333 333 333 333 333 333 333 332
311 313 314 312 312 316 316 314 313 313 312 311 310 311 312 311 310 310 310 309 308 309 311 312 311 312 314 314 314 314 313 316 325 335 341 342 342 341 341 343 343 339 335 334 334 335 337 336 334 334 334 333 334 334 334 334 334 335 336 336 336 335 334 333 333 333 333 334 334 334 334 334 334 334 334 334 334 333 333 333 333 333 333 332 332 332
313 313 312 311 311 315 316 313 313 313 312 311 311 311 311 310 309 311 311 311 310 310 311 311 311 313 314 315 315 314 313 314 317 323 331 337 342 342 340 342 342 339 336 335 334 335 337 338 336 335 334 334 334 334 334 334 335 335 336 337 336 335 334 334 333 334 334 334 334 334 334 333 333 333 333 333 333 333 333 334 334 333 333 332 333 333
313 310 308 309 311 313 314 313 313 312 312 313 313 311 311 310 309 310 311 311 311 312 312 312 312 314 315 315 315 314 313 313 312 312 315 324 336 341 340 341 341 338 336 335 335 336 338 340 338 336 335 334 334 334 334 335 336 336 337 337 336 335 335 334 333 333 334 334 334 333 333 332 332 333 333 333 333 334 333 334 334 333 333 333 333 333
314 310 308 309 309 310 312 312 312 312 312 313 313 312 311 311 310 310 310 310 311 312 313 313 313 314 315 316 316 315 315 316 316 312 311 318 329 338 340 341 341 338 336 335 336 337 339 341 339 338 336 334 334 335 335 335 336 337 337 337 336 335 335 334 333 334 333 333 333 332 332 332 332 333 333 333 333 333 334 333 333 333 333 333 332 332
312 309 309 311 311 310 310 311 311 312 311 311 314 314 311 310 311 310 310 310 311 312 313 313 313 314 315 316 316 316 317 321 322 320 319 322 330 336 339 340 340 339 336 335 336 337 339 341 339 338 336 334 334 335 335 336 337 337 337 336 336 335 334 334 334 334 333 333 333 332 333 333 333 333 333 333 333 333 333 333 333 332 332 332 332 331
312 310 309 312 312 310 310 312 312 311 311 312 315 314 310 309 310 310 310 311 311 313 314 313 312 314 315 315 316 318 321 324 326 327 328 330 333 336 338 339 339 339 336 335 337 337 339 341 339 337 335 333 334 335 335 336 337 337 336 336 336 335 334 334 334 333 334 334 333 333 333 333 334 334 333 333 333 333 332 331 331 331 330 330 330 330
313 312 312 311 311 311 311 313 311 310 311 313 313 310 309 309 310 309 310 311 312 313 314 314 313 314 314 314 318 321 323 324 326 328 329 332 335 336 337 338 338 339 335 335 337 337 338 339 337 336 334 333 334 335 334 336 337 337 336 336 335 335 335 334 334 334 334 334 333 333 333 333 333 333 333 333 332 331 330 330 329 328 327 327 327 328
311 311 311 310 311 312 312 311 310 310 311 311 310 308 309 309 310 310 310 311 313 314 314 315 314 313 313 313 317 322 324 325 328 328 328 331 334 334 335 337 338 337 335 336 336 337 338 337 334 334 333 333 334 335 335 336 337 336 336 336 335 335 335 334 334 334 334 334 333 333 332 332 332 332 332 332 331 330 329 329 329 327 326 324 324 326
309 309 309 310 311 312 311 309 308 309 310 309 309 309 310 310 311 311 312 312 314 314 314 316 316 314 313 313 315 320 324 327 328 329 329 330 333 334 335 336 337 336 335 336 335 336 337 334 332 332 332 333 334 335 336 336 336 336 336 336 335 335 334 334 333 333 333 333 333 333 332 332 331 332 332 332 330 330 329 330 329 328 326 325 325 325
310 309 309 310 311 309 308 308 306 307 308 308 310 310 311 312 312 312 312 313 314 315 314 313 313 314 313 313 316 321 325 327 328 330 330 329 332 334 334 335 336 336 336 336 335 335 334 331 331 332 332 333 334 334 335 336 336 336 336 336 335 334 334 332 332 333 333 333 333 332 332 332 331 331 331 331 330 329 329 329 329 328 327 325 325 325
311 311 310 310 311 308 309 309 307 306 307 308 309 310 312 313 313 313 313 313 314 315 314 311 311 314 314 313 317 322 327 330 330 331 331 329 330 334 335 335 335 335 335 335 335 334 332 330 331 331 331 332 333 334 335 335 335 336 335 335 334 334 333 332 332 332 333 334 333 332 332 331 331 331 330 331 330 329 328 328 328 328 327 325 325 325
313 313 310 309 310 309 309 311 311 309 308 308 310 311 312 313 313 314 313 313 314 314 313 311 312 313 313 316 323 326 329 331 331 331 330 329 330 334 337 336 335 335 335 334 333 332 330 330 330 330 331 332 333 334 335 335 335 335 334 334 334 333 332 332 331 332 333 334 332 331 331 331 330 330 330 330 330 328 327 326 326 326 326 325 325 325
314 314 311 311 311 310 309 311 312 311 308 308 309 310 312 314 314 314 313 313 313 315 314 312 314 315 315 321 327 328 330 331 332 331 330 330 332 334 336 336 336 335 333 330 329 328 327 328 329 329 330 331 333 334 335 335 334 334 334 334 333 332 332 331 331 332 333 333 332 331 331 330 330 330 330 330 329 327 326 325 325 324 325 325 324 325
313 313 312 311 309 308 310 311 310 310 310 308 308 310 312 313 315 314 313 314 314 314 316 315 316 318 320 322 324 327 331 332 331 331 332 333 332 332 333 332 332 331 328 327 328 328 328 328 328 328 330 331 332 334 335 334 334 333 333 333 333 333 332 331 331 330 330 332 331 330 330 329 329 330 330 330 328 327 326 325 325 324 325 324 324 324
311 313 314 311 309 309 309 310 310 310 311 310 308 311 311 311 315 316 313 312 313 313 316 317 319 322 322 322 325 329 332 332 332 332 333 332 329 329 330 329 329 328 327 328 329 328 328 329 328 329 330 332 332 333 334 334 333 333 333 332 332 331 329 329 328 326 327 331 331 329 329 329 329 330 329 329 327 327 327 325 324 324 324 324 323 323
311 313 314 312 312 310 308 308 308 309 310 310 311 312 310 309 313 316 314 313 313 313 315 319 324 326 323 321 327 332 332 331 332 332 331 330 329 329 329 329 329 328 328 329 329 329 329 329 329 330 331 332 332 332 333 333 332 333 332 330 329 326 324 325 325 325 328 331 330 329 329 329 329 329 328 328 327 326 326 325 324 325 324 323 323 322
311 313 316 312 311 310 308 309 309 308 308 309 311 311 311 313 314 314 314 314 314 313 315 320 323 324 324 324 329 332 331 332 332 330 330 329 329 329 328 329 329 328 329 329 329 330 330 330 330 330 331 331 331 331 332 332 332 330 329 327 326 324 324 325 326 327 329 330 330 329 328 328 328 327 327 327 327 326 326 324 324 324 323 323 322 322
311 314 316 313 310 310 310 313 314 311 309 309 310 310 312 314 314 314 314 314 314 315 316 319 321 322 323 324 326 330 331 333 332 330 330 329 328 329 328 329 328 328 328 329 329 329 329 329 329 330 330 330 331 331 330 330 330 328 326 326 325 325 326 328 327 327 328 329 329 328 327 327 327 326 326 327 327 326 325 324 324 324 323 322 322 322
313 314 315 314 312 311 313 315 316 314 311 310 311 312 314 314 313 314 315 313 314 316 316 317 318 320 323 321 324 329 331 332 331 329 330 329 327 327 326 327 327 326 327 327 328 329 329 329 328 329 329 329 330 330 329 328 328 327 326 325 325 326 327 328 328 328 329 328 327 326 326 325 325 325 326 327 326 325 324 324 324 323 323 322 322 322
316 314 315 317 316 315 315 314 313 314 314 312 313 313 314 316 314 314 315 314 314 316 317 317 316 319 323 322 326 328 329 331 329 327 328 328 328 327 326 326 325 325 325 325 326 328 327 327 328 328 329 329 329 329 328 328 328 327 326 324 325 326 327 327 328 328 329 327 326 326 325 324 324 325 326 326 325 324 324 324 323 323 323 322 322 322
320 319 317 318 316 315 315 311 310 313 313 313 314 314 314 316 316 314 315 316 317 316 316 317 316 320 323 323 325 326 327 328 327 327 328 328 326 326 325 324 324 324 325 324 325 325 325 326 327 327 328 328 329 328 327 327 327 327 326 325 326 326 326 327 327 327 328 327 326 326 325 324 323 324 324 323 323 323 323 324 324 323 323 322 322 321
322 321 318 318 316 314 314 311 309 311 314 316 317 316 315 317 316 315 315 317 319 318 318 318 316 321 325 324 324 325 325 325 325 325 326 325 323 321 320 320 321 321 322 322 322 323 323 325 326 328 328 328 329 328 328 327 327 327 327 326 326 326 326 326 326 327 327 327 327 326 324 322 322 322 323 322 323 323 323 323 323 323 322 322 321 320
321 320 318 318 318 317 317 316 314 314 316 317 317 318 317 315 314 315 316 317 318 318 318 318 316 322 326 324 324 324 323 322 322 321 321 321 320 318 317 317 317 318 319 318 318 319 319 321 324 326 327 327 328 327 327 326 326 326 327 327 326 326 325 325 325 326 326 327 327 325 323 322 321 322 322 323 323 322 322 323 323 322 322 321 319 318
320 321 321 318 318 319 319 318 316 316 317 316 316 316 316 315 315 317 317 317 317 317 317 318 318 323 325 325 324 323 323 323 320 317 316 316 315 314 313 313 314 314 315 315 315 315 315 317 319 322 325 325 325 325 325 325 325 325 326 327 326 325 325 325 325 326 326 326 325 323 322 321 320 321 322 322 322 322 322 322 322 321 321 319 316 314
320 320 321 322 320 317 317 315 312 314 318 320 319 317 316 316 315 316 316 316 317 317 318 319 322 327 328 327 326 324 323 323 319 315 314 312 311 311 311 311 311 311 311 312 312 313 313 314 316 318 321 323 323 323 323 323 324 324 325 325 325 325 325 325 325 325 325 324 323 322 321 321 320 321 322 322 322 322 322 321 321 320 319 317 315 313
323 319 317 322 320 316 316 315 312 314 317 318 318 317 317 317 318 319 319 319 318 317 318 320 322 328 329 326 326 325 323 320 316 313 312 311 311 311 310 309 309 308 308 308 309 310 311 312 314 315 317 319 320 320 320 321 322 323 323 324 324 324 324 324 324 323 323 322 322 320 320 320 320 320 321 320 320 321 320 320 319 318 317 317 316 314
324 320 316 318 317 315 315 315 314 313 313 312 314 316 316 318 321 323 321 318 318 319 320 322 323 327 328 327 325 322 319 316 313 311 310 309 309 309 308 308 307 307 306 306 307 308 309 310 311 311 312 313 315 315 315 315 317 319 320 321 322 322 322 322 322 321 321 321 320 320 319 319 319 319 319 319 319 319 319 319 318 317 317 316 315 315
320 319 319 318 316 315 315 314 314 313 312 312 312 313 315 317 320 320 320 320 320 321 321 323 325 326 325 323 319 315 313 312 310 309 308 307 307 307 306 306 306 305 305 305 305 306 306 307 308 308 308 309 309 310 310 309 311 313 314 316 318 319 320 320 319 319 319 319 319 319 319 319 319 318 319 319 319 319 319 319 318 318 317 315 314 315
318 318 318 319 318 317 316 315 315 314 313 312 313 312 313 316 318 318 319 319 322 324 323 323 326 324 319 315 312 311 310 308 308 307 306 306 306 306 306 305 305 305 304 304 304 305 305 305 305 305 306 306 306 307 308 308 308 309 310 311 314 315 316 318 317 317 317 318 318 318 318 318 319 319 319 318 318 319 318 318 319 318 318 317 316 317
319 317 316 317 319 318 316 316 316 316 315 314 313 313 313 315 316 315 316 316 319 323 324 324 326 323 315 311 310 308 307 306 306 305 305 305 305 305 305 305 304 304 304 304 304 304 303 303 304 304 304 304 304 305 305 305 305 306 306 307 308 311 313 314 314 313 313 314 316 316 316 317 317 318 318 318 318 318 318 318 318 318 318 318 318 319
318 317 316 317 319 318 316 317 318 319 319 317 314 311 312 313 313 314 315 314 315 318 321 323 322 318 313 310 309 307 305 305 305 304 304 304 304 304 304 303 303 303 303 303 303 303 303 303 303 302 302 303 303 303 303 303 303 303 303 303 305 309 311 310 309 309 309 310 312 313 314 315 316 316 315 315 316 316 316 316 316 315 315 315 315 317
318 319 317 317 318 318 316 317 319 320 320 317 311 308 310 312 312 314 315 313 313 315 317 316 313 311 310 309 307 305 304 303 303 303 302 303 303 303 303 303 303 303 303 303 303 303 303 303 303 302 302 301 301 301 301 301 301 301 301 301 303 305 306 304 303 304 304 306 308 308 309 311 312 312 311 311 312 312 312 311 311 311 311 310 311 312
318 319 316 314 316 317 316 317 320 321 318 313 309 307 308 309 310 311 313 311 311 312 312 311 308 306 305 304 303 302 302 301 301 301 301 301 302 301 302 302 302 302 302 302 302 303 303 303 303 302 301 301 300 300 300 300 300 300 300 300 300 301 301 301 300 300 300 301 302 303 303 304 305 306 306 306 307 307 307 306 305 306 306 307 307 307
316 316 314 313 315 316 317 317 318 318 313 310 310 307 307 308 309 311 313 312 309 309 309 308 306 304 302 302 302 301 301 300 300 300 300 300 300 300 301 301 301 301 301 301 302 302 302 302 302 302 301 300 300 300 300 299 299 299 299 299 299 299 299 299 299 299 299 299 299 300 300 300 301 301 302 302 303 303 302 302 302 302 303 304 305 305
313 315 314 314 313 314 317 317 315 316 314 310 310 308 306 307 307 308 312 311 308 308 307 305 304 303 302 302 302 302 302 302 301 300 299 299 300 300 300 300 300 300 301 301 301 301 301 301 301 301 300 300 300 300 299 299 299 299 299 299 299 299 299 299 299 298 298 298 298 298 299 299 299 299 299 300 300 300 299 299 300 300 300 301 301 301
311 314 315 315 312 312 315 316 314 316 316 311 308 306 305 305 305 305 309 311 308 306 306 304 304 303 303 303 303 304 305 305 303 301 299 299 300 300 300 300 300 300 300 300 300 300 300 300 300 300 300 300 300 299 299 299 299 299 299 298 298 298 298 298 298 298 298 298 298 298 298 298 298 298 298 298 298 298 298 298 298 298 299 299 299 299
310 310 312 314 312 310 313 314 313 315 313 309 307 305 304 304 304 305 311 313 308 304 304 304 303 303 304 304 304 305 307 306 303 300 299 299 300 300 300 300 300 300 299 299 299 299 299 299 299 299 299 299 299 299 299 299 299 299 298 298 298 298 298 297 297 297 297 297 297 297 297 297 297 298 298 298 297 297 297 297 297 297 297 298 298 298
309 308 309 311 310 309 311 312 312 312 310 307 305 304 303 303 304 309 317 315 307 304 305 303 303 304 305 305 305 306 307 306 303 299 298 299 300 300 300 300 300 301 300 299 299 299 298 298 298 298 298 298 298 298 298 298 298 298 298 298 297 297 297 297 297 297 297 297 297 297 297 297 297 297 297 297 297 297 297 297 297 297 297 297 297 297
305 306 307 308 308 308 310 312 311 309 307 305 304 304 302 303 308 314 316 310 305 305 306 304 304 305 305 305 305 304 303 302 300 298 298 299 300 300 299 300 300 300 299 299 299 298 298 298 298 298 298 298 298 298 298 298 297 298 298 297 297 297 296 296 296 296 296 296 296 296 296 296 296 296 296 296 296 296 296 296 296 296 296 296 296 296
304 305 306 306 306 306 308 310 310 309 306 303 303 303 303 307 312 312 308 304 304 305 305 304 304 304 303 303 302 301 299 298 298 298 298 299 300 300 301 301 300 299 299 299 298 299 299 298 298 298 297 297 297 297 297 297 297 297 297 296 296 296 296 296 295 295 295 295 295 295 295 295 295 295 295 295 295 295 295 295 295 295 295 295 295 295
304 305 306 305 305 306 307 309 310 310 306 302 303 305 305 307 308 305 302 304 306 304 303 303 303 302 302 301 300 299 298 298 297 298 298 299 300 300 300 300 300 299 299 299 298 298 298 298 298 297 297 297 297 297 297 297 296 296 296 296 296 296 296 295 295 295 295 295 295 295 295 295 295 295 295 294 294 295 294 294 294 294 294 294 295 295
304 304 304 304 304 307 309 310 308 307 304 302 303 304 303 303 303 302 302 305 305 303 302 301 301 301 301 300 299 298 298 298 297 297 298 298 298 299 299 299 299 299 299 299 298 298 298 298 297 297 297 297 297 296 296 296 296 296 296 296 296 296 295 295 295 295 295 295 294 294 294 294 294 294 294 294 294 294 294 294 294 295 294 294 295 295
304 303 304 304 304 305 306 306 304 303 302 302 302 302 301 301 301 302 303 303 303 303 301 300 299 299 299 298 298 298 298 298 297 297 297 297 297 298 298 298 298 299 299 298 298 298 298 297 297 297 296 296 296 296 296 296 296 295 295 295 295 295 295 295 295 294 294 294 295 294 294 294 294 293 293 294 294 295 295 295 295 295 295 295 295 296
302 301 303 304 303 303 303 303 302 301 301 301 301 301 301 301 301 301 302 302 302 302 300 299 299 299 299 299 298 298 297 297 298 298 297 297 297 297 297 298 298 299 299 298 298 298 297 297 297 297 296 296 295 295 295 295 295 295 295 295 295 295 295 295 295 294 294 295 295 295 295 295 294 294 294 295 295 295 295 295 295 296 295 296 296 296
301 301 302 303 302 303 304 302 301 301 301 301 301 301 300 300 300 300 300 301 301 301 301 300 300 300 300 299 298 298 298 298 299 299 297 297 297 297 297 297 298 298 298 298 297 297 297 297 297 297 296 296 295 295 295 295 295 295 295 295 295 295 295 295 295 295 294 295 295 295 295 295 295 295 295 295 295 295 295 295 295 296 296 296 296 296
301 301 302 302 302 303 303 301 300 300 301 301 301 301 301 300 300 299 300 300 300 301 301 300 300 300 300 299 299 299 299 299 300 301 299 298 297 297 297 297 297 297 297 297 297 297 297 297 297 297 296 295 295 295 295 295 295 295 295 295 295 295 295 295 294 294 294 295 295 295 295 295 295 295 296 296 295 296 296 296 296 296 296 296 296 296
300 302 302 302 303 302 302 301 301 302 302 301 301 301 301 301 300 299 299 299 299 300 300 300 300 300 299 299 299 300 300 300 300 300 300 299 297 297 297 297 297 297 297 297 297 297 297 297 297 297 296 296 295 295 295 295 295 295 295 295 295 295 295 295 294 294 294 295 295 295 295 295 295 295 296 296 296 296 296 296 296 296 296 295 295 295
301 302 301 301 302 302 302 302 302 302 302 302 301 300 300 300 301 300 300 300 299 299 299 299 299 299 299 299 299 300 300 300 298 298 298 298 297 297 297 297 297 297 297 297 297 297 297 297 297 297 296 296 295 296 296 295 295 295 295 295 295 295 296 295 295 294 294 295 295 295 295 295 295 295 295 296 296 296 296 296 295 295 295 295 295 294
301 302 301 302 302 302 302 302 301 302 303 302 300 299 299 299 301 301 301 300 300 300 300 299 299 298 298 298 298 298 298 297 296 296 297 296 296 296 296 296 297 297 297 297 297 297 297 297 297 297 296 296 296 296 296 296 295 295 295 295 295 295 295 296 295 295 294 295 295 294 295 295 296 296 296 296 296 296 296 296 295 294 294 294 294 294
Wind_Speed
2 3 4 5 4 5 5 6 4 3 3 3 1 2 4 5 2 1 4 6 3 4 7 6 6 6 9 10 6 3 4 8 12 12 11 12 12 11 10 10 11 9 8 10 13 15 19 29 36 35 32 23 11 11 20 30 31 26 27 28 26 27 25 22 22 22 21 19 16 15 13 12 11 11 11 11 11 11 11 12 12 11 10 9 9 10
2 5 5 4 5 5 5 5 5 4 3 1 3 4 5 5 2 1 6 6 1 3 5 2 4 7 9 11 8 3 4 9 12 13 13 14 13 11 11 12 12 9 8 9 11 12 15 23 31 27 19 16 12 8 9 19 23 20 25 27 25 26 24 23 22 22 21 18 16 15 13 12 12 11 11 11 11 11 12 12 11 10 10 10 10 10
3 6 5 5 5 4 4 4 5 4 3 2 2 3 5 3 2 3 5 3 1 3 4 2 4 9 11 12 10 6 8 11 12 13 13 13 13 12 13 14 13 11 11 12 11 11 13 19 25 20 13 12 12 9 10 19 24 23 26 26 24 24 23 22 20 20 18 15 14 13 12 12 11 11 11 11 11 11 12 12 10 10 10 10 10 9
3 4 4 6 6 5 4 3 5 3 2 3 2 4 5 1 1 4 3 1 2 4 6 6 6 9 10 10 9 7 8 10 9 7 9 8 9 12 15 15 15 15 15 15 12 12 13 16 20 18 14 14 14 13 14 20 25 27 27 25 25 25 25 24 21 19 16 14 14 12 11 11 10 10 11 11 12 11 12 12 10 10 10 9 9 8
4 1 2 6 6 6 4 3 5 3 3 3 4 6 6 3 5 7 2 2 4 3 4 5 6 6 5 5 5 2 3 7 7 6 8 8 8 11 14 15 16 16 15 15 14 13 14 15 17 18 16 16 17 16 17 21 25 29 28 24 24 25 26 25 22 20 16 15 15 13 12 12 10 11 11 12 13 13 13 12 10 10 9 9 8 7
4 2 5 7 4 5 5 4 5 5 3 2 5 9 11 10 9 6 0 2 4 2 1 1 4 3 1 3 5 1 3 6 5 5 8 9 10 12 14 16 17 16 14 15 15 14 16 15 14 15 15 17 18 16 17 21 24 27 27 24 24 24 24 24 23 20 17 17 17 15 15 14 13 13 13 15 16 15 14 12 11 10 9 8 7 7
2 4 6 6 5 6 5 4 5 6 4 2 3 8 11 11 7 4 4 3 3 1 1 0 4 4 2 3 5 3 6 6 2 3 5 7 11 12 13 15 16 16 14 15 15 15 17 15 12 12 13 17 18 17 18 20 22 24 25 25 25 25 24 24 23 21 19 18 17 16 15 15 15 15 14 15 16 15 14 12 12 11 10 9 8 8
2 5 5 5 5 5 5 4 5 8 5 2 2 4 6 7 6 6 7 5 2 2 2 2 2 5 4 3 3 3 7 6 2 2 2 6 9 11 12 13 16 17 15 15 14 15 17 14 11 11 13 17 18 18 19 19 21 24 25 26 26 26 25 25 25 23 22 20 17 15 15 15 16 17 15 15 16 15 15 15 14 12 11 10 9 9
3 6 7 7 6 4 5 4 7 10 6 2 3 3 3 4 5 6 6 4 1 2 4 2 3 4 5 2 1 2 5 6 3 5 4 4 7 9 11 13 15 16 15 15 15 17 16 10 8 9 13 17 17 19 21 20 21 23 25 26 26 27 26 26 26 25 23 21 17 14 16 18 18 19 18 17 17 17 17 17 16 14 13 11 10 10
1 4 6 7 6 6 7 4 9 13 7 1 5 4 3 3 2 3 4 3 2 2 5 3 4 4 5 3 2 2 3 4 4 6 6 5 6 8 10 12 13 13 13 15 16 17 11 5 8 11 14 17 16 18 21 21 22 23 24 25 25 26 27 26 27 26 23 20 17 17 21 22 21 21 21 19 18 18 18 17 16 15 14 12 11 10
1 1 2 4 5 5 5 3 6 10 5 3 5 4 3 3 2 1 1 1 2 4 4 3 6 5 4 2 3 2 1 2 5 7 7 6 6 8 9 10 11 11 12 14 15 14 7 8 10 13 16 17 17 18 20 23 26 25 24 25 23 24 26 25 25 24 21 18 19 21 24 25 24 23 22 20 20 19 18 18 17 16 14 12 11 10
1 1 1 3 3 2 2 3 2 3 2 2 2 1 1 1 2 2 1 1 4 4 1 1 3 4 5 4 2 1 3 4 6 8 9 8 7 8 8 8 8 9 9 11 12 10 6 8 11 14 17 18 19 20 19 22 27 27 25 24 23 24 26 25 23 20 19 20 22 22 24 25 25 24 23 22 22 21 20 19 18 17 15 13 11 10
2 4 3 3 2 4 4 2 2 2 3 4 3 2 2 2 2 2 2 2 4 3 2 1 2 3 6 6 3 3 5 7 8 9 11 10 8 6 6 6 5 5 7 8 9 8 5 6 9 13 16 17 19 20 19 21 26 27 25 24 23 24 25 24 23 20 20 23 23 22 24 25 24 23 23 23 23 22 21 20 20 18 16 14 12 11
3 3 2 2 2 5 7 5 4 3 5 6 5 5 4 3 2 2 2 1 4 2 3 1 2 2 5 3 2 5 7 8 9 9 9 6 5 4 2 4 6 6 6 5 4 2 1 0 4 10 14 14 16 18 18 21 24 24 24 25 24 22 22 23 21 21 23 23 22 22 23 23 22 21 22 22 23 22 21 20 19 18 16 15 13 12
3 2 3 5 1 4 11 10 4 3 5 5 4 3 4 3 2 2 3 3 4 0 3 1 2 3 3 1 2 4 7 7 7 7 5 1 1 2 2 3 6 6 5 5 6 7 8 8 5 4 9 12 15 16 17 19 21 22 23 24 24 23 24 23 20 22 25 23 22 22 22 21 20 20 21 21 22 22 21 19 18 17 16 14 13 11
2 3 3 3 1 4 10 7 3 4 3 2 2 2 2 3 2 0 0 0 1 0 2 1 2 2 3 1 3 2 5 8 7 7 7 8 9 9 7 6 6 7 8 8 8 10 12 11 9 4 4 9 14 15 16 20 22 22 21 21 24 26 26 23 22 25 25 22 21 21 21 20 19 19 21 22 22 21 19 17 17 16 15 13 12 11
1 2 1 1 2 5 6 4 5 4 3 3 3 4 1 0 2 2 0 2 1 3 1 1 2 2 3 1 3 4 5 8 9 8 10 11 12 12 10 9 9 8 8 8 9 11 11 13 14 9 6 9 14 14 14 19 24 24 19 17 17 15 14 15 20 23 23 21 20 20 20 20 19 20 21 22 22 21 18 17 16 15 14 13 12 11
2 2 1 1 4 3 1 1 3 1 2 4 3 3 3 1 1 1 1 1 0 4 1 0 2 2 2 1 3 5 5 8 9 9 10 11 12 11 10 9 10 9 9 9 10 11 9 10 14 14 10 7 11 13 13 15 20 21 17 14 12 12 14 15 18 19 20 20 20 20 21 21 20 20 22 22 21 20 19 17 16 15 14 14 12 10
2 3 2 2 3 1 1 2 3 1 1 1 1 2 2 2 2 2 2 1 2 3 1 1 2 2 3 2 2 4 4 5 7 9 10 11 12 10 8 9 10 10 10 9 10 10 8 9 13 15 14 10 8 9 13 16 16 15 15 17 18 19 20 20 20 18 18 19 20 20 21 21 20 21 22 22 20 19 18 17 16 16 15 14 12 10
1 3 2 1 2 1 1 1 2 2 2 0 1 2 0 2 2 1 1 1 2 3 1 1 1 2 2 0 2 2 3 3 6 8 8 9 10 9 8 7 7 7 7 8 8 9 8 8 11 13 15 16 13 9 13 18 20 18 18 20 20 20 21 23 24 21 19 18 18 19 19 20 20 21 22 21 19 19 17 16 16 15 14 13 11 9
1 2 2 1 2 2 0 0 1 2 2 2 3 4 2 1 0 1 1 1 1 2 1 2 2 1 1 1 1 2 2 3 6 7 7 8 8 7 6 6 6 6 6 5 7 10 9 8 10 13 13 15 16 14 15 20 22 21 21 21 20 20 23 25 26 24 21 18 18 18 19 19 19 20 21 20 19 18 17 16 15 14 14 13 11 9
1 2 2 1 1 1 0 1 0 1 0 0 2 3 3 3 2 3 3 1 1 1 1 2 3 0 1 1 1 1 1 3 6 8 7 8 8 7 6 6 6 7 6 5 5 6 7 8 10 12 13 14 15 17 17 18 20 22 22 22 22 23 25 25 24 23 21 20 18 17 18 18 18 19 20 19 19 18 17 15 14 13 13 12 10 9
1 2 1 1 1 1 1 1 1 1 1 1 0 0 0 1 2 4 5 2 2 1 1 0 2 0 1 0 0 0 1 4 6 8 8 7 6 7 7 6 7 9 9 7 5 4 4 6 8 8 10 13 15 17 16 15 17 18 18 21 24 26 27 27 26 24 23 21 19 19 18 18 19 20 20 20 19 18 16 15 14 13 12 11 10 9
1 1 1 1 1 2 2 2 3 1 2 2 2 2 1 1 1 2 2 1 3 3 2 2 3 1 1 1 1 2 5 7 6 7 8 7 6 7 8 8 8 9 10 9 7 5 5 3 5 7 9 11 13 14 14 13 14 14 15 20 24 21 22 27 28 27 26 24 22 21 20 20 21 21 21 20 20 18 17 15 14 13 12 11 10 9
1 0 0 1 0 1 2 2 3 2 1 1 1 2 2 2 1 0 1 1 2 2 2 3 3 1 1 1 3 4 7 8 8 8 8 6 6 6 7 8 8 8 9 9 8 7 7 5 2 5 8 10 11 12 12 12 13 13 13 17 19 17 18 25 29 27 26 25 23 22 21 20 21 21 21 21 19 18 17 16 15 14 12 11 11 10
2 1 0 2 3 4 3 2 2 1 1 1 1 4 6 5 3 1 2 2 4 2 2 3 2 1 1 3 4 4 6 8 7 7 7 7 7 6 7 7 8 8 8 8 8 8 6 5 4 2 5 8 10 11 13 13 12 13 13 13 14 15 15 19 25 26 24 23 23 21 19 17 16 17 18 19 19 18 18 17 16 14 13 12 12 12
3 2 1 2 2 2 1 0 1 1 1 1 3 6 7 7 5 2 2 2 2 4 3 2 1 4 5 5 5 5 6 7 7 7 7 7 7 8 8 8 9 8 7 7 8 8 7 6 7 6 5 8 12 13 14 14 13 15 17 15 13 13 12 14 19 20 19 19 20 20 19 18 16 16 17 18 19 20 19 18 16 14 13 12 12 12
3 3 1 3 3 1 1 2 2 1 2 2 4 6 8 9 6 1 1 2 1 2 3 1 3 5 6 6 6 6 6 6 7 7 7 7 7 8 8 9 10 9 9 9 10 9 9 8 7 9 9 10 15 17 15 15 15 15 17 15 12 12 12 13 14 15 16 17 17 18 19 20 19 20 20 20 20 20 19 17 15 14 13 11 10 9
3 3 2 3 4 2 0 1 1 5 5 5 7 8 8 10 9 6 3 4 4 2 0 3 6 4 4 7 6 5 6 8 8 7 7 8 8 8 9 10 11 11 11 11 10 9 10 9 8 10 12 14 18 20 19 19 18 18 17 15 14 14 14 14 15 16 16 17 16 15 17 19 21 21 21 20 19 19 17 16 15 14 13 11 8 6
2 2 3 4 5 4 3 3 2 5 5 6 10 10 8 8 9 8 6 6 5 3 3 5 8 5 4 5 7 8 8 9 9 8 9 9 9 10 11 12 12 13 13 12 10 9 9 9 9 11 14 14 16 19 21 21 21 23 23 20 20 19 17 18 18 19 20 20 18 16 16 18 21 20 18 17 16 15 14 13 12 10 8 8 8 5
1 2 3 3 4 3 4 5 4 3 5 7 11 12 10 8 8 8 7 6 5 3 4 6 7 5 5 6 10 9 8 10 10 10 10 10 10 11 12 12 12 13 13 13 12 11 11 10 10 11 14 14 13 17 21 22 23 26 27 26 26 25 24 25 25 25 25 24 22 20 19 20 19 17 16 16 16 15 15 14 13 12 11 10 11 9
2 2 3 2 3 3 3 4 3 2 3 5 9 13 12 8 5 5 4 4 4 2 3 5 3 3 3 7 9 9 10 12 11 10 10 10 10 11 12 12 12 12 12 12 12 12 12 11 10 11 13 13 14 16 18 21 26 27 28 28 27 27 28 29 30 29 28 27 25 23 22 21 20 19 18 18 17 17 18 18 18 18 17 16 14 13
2 1 3 2 3 3 2 1 1 2 3 1 5 8 8 5 5 5 2 3 6 4 2 2 2 3 4 6 8 9 11 12 10 9 9 9 10 10 11 11 11 12 12 12 13 12 11 10 10 14 15 16 19 20 18 24 29 28 28 29 28 29 31 31 31 30 28 27 27 26 24 23 22 22 21 20 20 20 19 19 19 19 18 18 16 15
1 1 1 0 2 2 2 3 2 3 2 1 1 5 5 4 6 5 2 5 7 3 3 4 5 6 5 5 8 10 11 11 10 9 9 8 8 9 10 11 10 10 11 12 13 12 10 9 11 16 19 20 23 23 23 28 32 30 30 32 32 33 34 33 32 32 31 30 30 29 27 25 24 23 23 22 21 20 20 20 20 20 19 18 17 17
2 2 1 1 1 3 1 1 2 2 1 2 2 4 5 3 6 5 2 6 8 4 5 7 8 9 9 8 9 11 12 12 12 12 11 10 8 8 9 10 10 9 9 10 12 11 11 11 10 14 21 23 24 25 26 29 32 32 32 32 32 33 34 34 33 33 33 33 31 30 30 29 28 27 25 24 22 22 22 22 22 21 20 19 18 18
3 2 2 1 2 2 2 1 1 2 2 1 2 5 6 4 6 4 1 5 9 6 4 7 8 9 11 11 9 9 9 10 12 12 11 10 9 9 9 8 8 9 10 11 12 12 12 12 12 16 21 22 23 26 29 31 34 35 35 34 34 35 35 35 33 31 31 31 29 28 28 28 27 26 25 25 24 23 23 22 21 20 19 18 17 17
4 2 3 1 1 2 3 3 3 3 3 3 3 5 5 3 5 4 1 3 8 5 4 7 9 10 10 10 9 8 7 8 10 9 9 9 9 9 10 10 9 10 12 13 15 15 15 15 15 18 22 23 24 26 30 34 37 38 38 37 36 36 35 34 32 29 28 27 26 26 25 24 24 24 23 23 23 22 21 20 19 18 17 16 16 15
2 1 1 1 1 1 3 4 2 2 2 3 5 5 4 3 5 3 2 1 5 6 3 7 10 10 9 8 7 5 3 6 8 5 6 8 9 9 10 11 11 13 15 16 17 17 17 15 14 17 21 22 21 24 29 33 36 37 37 36 35 34 33 31 29 27 26 25 23 23 23 22 22 22 22 21 21 20 19 18 17 16 15 15 15 14
6 4 2 3 2 1 3 4 2 2 2 4 8 8 6 4 3 2 2 1 5 5 3 5 8 9 10 9 6 2 1 4 5 3 3 7 9 10 10 10 11 14 17 18 19 18 17 15 13 16 21 20 18 21 27 31 34 34 33 32 31 31 30 28 25 24 23 22 21 20 20 20 20 20 20 20 19 18 17 16 15 14 13 13 13 12
8 6 4 4 3 3 3 3 3 3 2 6 10 11 8 3 1 3 1 2 5 4 4 6 5 5 5 4 3 2 2 3 5 4 3 5 8 10 11 10 11 14 16 17 19 19 19 18 16 15 17 18 19 23 28 31 32 29 25 26 28 27 25 23 22 21 20 20 19 19 19 19 19 19 19 18 16 16 15 14 13 13 12 12 12 11
5 4 3 4 4 3 4 4 3 2 2 6 11 11 6 1 2 0 2 2 3 3 6 5 3 3 2 1 2 3 4 5 7 6 5 8 9 9 10 10 12 14 13 14 17 19 19 20 19 17 16 17 21 26 29 31 30 26 23 25 26 24 21 19 19 19 20 20 20 19 19 18 18 18 17 16 15 14 14 14 13 12 12 12 11 10
3 3 3 3 2 2 2 4 3 2 2 8 12 9 4 1 1 2 4 2 1 5 7 6 5 5 6 7 7 7 8 10 9 8 8 9 9 8 8 9 12 13 13 14 17 19 19 19 20 20 19 19 22 25 26 28 28 24 23 24 22 20 18 18 18 18 19 20 19 19 18 17 16 16 16 15 14 14 14 13 12 11 11 11 10 10
3 1 2 2 2 1 2 4 3 2 3 11 12 6 2 3 2 2 3 2 4 7 7 7 7 8 9 10 10 10 10 10 9 8 8 7 6 6 8 9 10 12 14 15 16 19 20 18 17 18 18 18 21 23 24 25 24 22 22 21 18 16 16 16 17 18 18 18 18 17 16 16 15 15 14 13 13 13 12 12 11 12 12 12 11 10
4 1 2 1 2 2 3 4 3 2 5 9 8 3 3 4 3 3 1 4 6 6 6 8 8 8 9 11 10 10 10 9 6 6 5 5 5 5 6 8 8 10 12 14 16 20 22 20 17 18 18 18 19 21 21 22 21 19 19 17 14 14 15 16 16 17 17 16 15 15 14 14 14 13 12 12 12 11 12 12 11 11 12 12 11 9
4 3 3 4 4 4 5 4 2 2 4 5 5 3 3 4 4 3 3 5 6 5 6 7 8 8 9 10 11 10 9 7 5 4 5 5 5 5 6 7 8 9 10 10 12 17 20 20 19 19 18 17 18 20 19 19 19 18 16 14 13 13 14 15 15 16 15 14 13 12 12 12 12 12 12 12 12 11 11 11 11 9 9 10 9 8
3 2 2 4 4 5 6 6 4 4 5 5 5 4 4 5 5 4 5 7 7 7 7 7 8 8 8 9 10 10 8 6 5 5 5 5 5 6 7 8 8 9 10 11 12 15 19 20 19 19 18 18 18 19 20 19 19 18 16 14 13 13 13 13 14 14 13 12 11 10 10 9 10 11 12 12 12 11 11 11 10 8 8 8 7 7
2 1 2 3 1 2 4 5 5 5 5 6 6 7 7 8 7 6 7 8 9 9 9 8 9 8 7 8 9 9 7 6 5 4 4 4 5 6 7 7 8 9 10 11 13 16 19 20 18 17 17 17 17 19 20 20 19 18 16 14 13 12 12 12 12 11 10 10 9 9 9 9 10 10 10 12 11 10 10 11 10 8 8 8 8 8
1 1 2 4 3 3 3 3 3 4 6 6 6 6 7 8 8 8 8 9 10 10 9 9 9 7 6 6 7 7 6 4 4 4 3 3 4 5 6 7 8 9 10 12 14 16 17 17 16 15 15 16 17 19 19 19 18 16 14 13 11 10 10 11 11 11 10 9 9 9 9 10 10 10 9 11 12 11 10 10 10 9 9 9 8 8
1 1 1 2 4 5 4 3 3 6 7 6 6 6 5 6 8 9 9 10 10 10 9 9 9 8 8 7 6 6 5 3 3 4 3 3 4 4 5 6 7 9 10 11 12 15 16 16 15 14 14 15 16 17 17 17 16 14 12 11 9 7 8 10 10 10 10 9 9 9 9 9 10 10 10 10 11 11 11 10 10 9 7 7 6 5
1 3 1 2 5 4 3 3 3 3 5 4 4 4 4 3 6 10 10 9 10 9 9 8 8 8 8 8 8 7 5 3 3 4 3 3 3 4 5 6 7 8 10 11 12 14 15 15 15 14 14 15 15 15 15 14 13 13 12 11 9 8 8 9 9 9 9 9 9 9 9 8 8 10 11 10 10 10 10 11 12 12 9 6 3 2
2 2 0 2 5 4 3 3 2 2 4 4 2 2 3 2 3 8 8 8 8 8 9 9 9 7 6 5 5 7 7 5 6 6 4 2 3 5 5 6 7 7 8 10 11 12 13 14 14 14 14 14 14 13 13 12 12 12 12 12 12 10 8 8 8 7 8 8 8 9 8 8 8 9 10 10 10 10 8 8 10 13 13 9 6 5
Wind_Direction
184 180 193 197 176 161 179 197 196 163 128 125 177 261 264 268 273 133 248 261 251 274 278 276 271 263 272 275 267 246 215 221 232 233 229 226 221 217 211 201 190 181 173 168 168 178 181 181 186 189 188 193 188 169 182 188 190 187 180 179 181 182 179 176 176 178 180 179 176 173 171 173 171 168 168 168 170 170 173 173 173 176 178 177 177 179
190 210 207 185 162 154 174 175 149 139 144 178 237 269 276 267 277 222 255 273 234 237 262 261 274 266 262 270 271 240 220 228 228 226 225 221 217 212 205 201 194 182 169 169 173 183 187 187 192 196 191 187 176 165 181 184 185 181 175 180 184 183 182 180 177 178 179 180 177 173 173 175 173 173 172 171 172 172 170 169 170 173 174 175 173 172
196 220 213 180 161 118 99 136 145 150 165 191 217 261 270 272 321 263 250 280 199 222 267 281 275 273 270 274 273 244 228 236 230 223 225 219 210 204 201 200 188 172 175 182 180 185 192 194 197 198 192 186 172 160 173 179 183 180 176 181 182 180 184 184 179 179 179 180 180 177 175 172 170 174 174 171 170 170 168 166 168 171 170 170 166 165
193 237 215 172 160 130 108 136 145 141 170 192 206 241 260 309 15 265 234 176 206 229 272 282 284 277 272 274 269 247 236 250 255 249 252 243 217 204 200 196 183 176 181 183 180 186 191 193 199 199 189 185 174 159 168 176 177 178 178 179 177 178 184 185 183 182 179 177 178 176 171 166 162 166 167 165 167 168 168 166 167 169 166 163 163 165
206 277 133 142 163 163 144 140 156 184 225 209 212 234 258 246 226 245 269 322 271 236 251 267 272 264 256 261 254 228 250 269 282 283 267 255 233 213 204 198 188 185 184 181 181 188 194 195 201 199 181 178 179 164 167 177 176 177 178 175 173 176 181 184 185 183 176 171 171 165 159 159 155 155 159 163 167 170 171 170 167 165 161 158 158 162
222 163 131 134 162 181 168 174 186 202 231 245 215 220 236 236 226 228 228 327 287 236 140 263 272 255 191 251 250 235 307 287 288 269 251 233 220 211 206 201 193 190 187 186 186 189 200 199 199 199 175 171 180 168 167 177 177 175 173 171 171 173 178 182 182 178 173 170 170 164 158 160 160 159 167 171 170 171 171 168 164 159 155 154 155 160
215 160 160 155 163 180 190 209 198 188 216 273 220 209 224 233 226 199 174 208 264 274 124 263 285 280 262 251 255 285 298 294 312 275 251 223 212 207 204 203 196 192 187 191 190 191 205 200 191 199 179 172 177 166 166 175 173 171 169 171 172 173 177 178 176 174 173 173 173 170 166 165 167 166 171 173 170 168 166 162 158 154 151 153 156 160
152 151 165 167 163 174 197 223 194 178 197 251 166 180 200 212 211 195 192 208 247 317 280 187 240 271 275 249 236 293 293 291 347 3 273 222 217 210 205 206 204 197 187 189 190 191 205 202 186 186 172 172 173 164 167 170 167 167 169 174 174 174 177 178 179 180 179 178 175 172 171 170 171 168 166 166 164 162 159 157 153 151 152 151 153 157
139 173 180 170 167 187 209 210 171 172 206 247 144 145 167 186 197 185 189 213 215 308 269 191 168 249 273 250 196 280 282 284 334 355 326 251 229 221 215 212 208 201 189 190 196 199 205 195 168 158 155 166 167 163 169 166 162 164 167 173 173 174 179 181 184 185 184 183 177 173 174 172 171 166 161 160 159 156 155 155 153 152 152 148 150 152
95 209 193 168 174 207 213 184 161 177 205 202 130 122 94 106 127 162 191 199 149 245 261 202 169 238 279 267 235 240 256 288 321 330 321 283 245 229 225 219 206 198 192 194 205 208 199 140 134 144 149 160 160 162 167 162 161 163 164 169 170 172 178 182 186 186 185 185 179 177 177 172 167 163 160 158 156 156 156 157 156 156 154 150 153 151
37 323 165 176 197 214 210 167 166 183 177 105 130 131 89 100 103 127 177 163 179 236 256 194 179 224 281 276 243 251 291 330 317 313 319 305 261 235 230 227 211 200 198 201 210 208 169 111 134 144 147 156 158 160 160 158 163 164 166 170 169 172 178 182 186 184 182 182 180 180 177 170 165 163 160 159 160 162 163 163 163 161 160 159 160 157
325 271 189 219 206 159 165 164 166 185 163 121 153 160 135 147 135 143 139 161 227 243 303 99 168 198 244 257 258 330 9 345 317 309 312 307 276 244 230 229 220 210 204 203 211 205 152 128 146 148 149 154 157 160 157 156 161 164 169 173 171 174 180 181 181 179 178 179 179 179 176 171 167 165 164 164 167 169 170 170 169 168 168 169 168 163
253 232 244 275 219 172 183 188 141 143 185 195 190 194 216 195 152 191 193 189 239 254 38 57 145 184 246 263 296 342 352 340 329 317 307 299 282 261 240 225 218 211 207 211 219 218 196 169 160 152 151 153 156 160 157 156 158 161 169 176 175 176 181 180 177 176 177 178 177 176 176 173 170 169 169 172 173 173 173 172 172 172 172 173 172 168
232 241 235 244 239 188 187 207 206 173 182 189 181 185 197 180 160 195 187 217 257 270 48 79 180 228 260 267 331 344 349 344 341 337 317 289 269 275 257 198 182 180 191 208 225 254 315 89 142 149 151 153 157 157 157 156 156 161 169 176 176 175 178 178 175 175 176 177 176 177 178 175 173 173 175 177 176 174 172 170 170 171 172 173 172 170
218 270 200 189 202 173 188 211 222 137 158 178 173 180 197 199 202 213 203 226 252 160 69 100 188 214 239 114 53 352 355 360 359 4 9 27 44 17 36 140 160 153 117 88 78 64 58 55 53 117 142 151 158 158 158 156 157 165 171 175 176 175 177 177 173 174 174 174 175 176 178 178 175 177 179 180 177 173 169 168 170 170 168 170 169 169
220 279 238 201 48 176 193 201 143 120 156 161 149 180 223 228 189 136 354 183 276 157 106 201 229 239 250 330 49 20 14 21 20 32 55 65 62 58 57 72 92 99 96 98 99 95 99 100 87 79 136 161 164 162 160 159 162 169 169 173 180 181 181 175 169 171 171 170 173 175 178 179 179 179 180 179 175 172 170 169 171 170 166 164 163 165
201 267 264 297 235 199 207 193 164 194 190 132 181 197 187 203 133 120 82 73 22 255 204 197 255 278 269 311 52 52 35 33 34 50 67 68 68 70 66 71 82 97 108 114 118 118 123 124 119 129 173 171 161 163 161 158 164 171 169 170 178 175 166 155 155 162 165 166 171 178 180 180 180 181 180 177 173 171 173 172 172 170 165 162 160 159
216 259 250 233 233 215 234 181 150 209 156 140 197 185 123 110 105 118 230 90 160 246 239 160 267 302 285 271 62 54 38 36 43 60 71 70 73 76 73 78 86 98 107 106 110 112 114 121 126 143 166 149 142 162 164 153 160 171 171 164 150 119 110 126 142 153 161 165 171 182 186 183 180 181 181 177 173 173 175 173 173 171 168 165 160 157
196 262 265 216 243 331 52 174 142 113 217 202 217 139 136 221 205 148 209 204 219 243 230 173 254 269 239 231 59 58 42 35 51 66 72 72 75 76 77 80 82 90 100 103 105 104 102 109 120 140 155 144 131 151 154 148 147 150 151 144 129 112 114 131 144 152 161 167 175 185 189 185 181 182 182 178 176 176 175 174 176 175 172 168 162 159
131 252 251 181 240 319 46 210 197 172 182 150 147 161 230 282 231 181 181 207 235 243 233 204 245 238 210 70 29 35 40 45 66 73 73 76 78 76 77 80 79 87 101 112 118 117 110 101 110 133 151 157 155 133 124 134 134 132 137 137 132 130 135 144 150 157 166 172 180 186 188 187 184 183 183 180 178 177 173 175 179 178 175 168 163 162
100 221 240 223 259 265 198 358 280 199 183 188 188 186 177 124 330 201 144 55 268 221 185 224 246 251 97 47 321 326 23 64 89 87 80 83 90 92 93 98 96 85 86 107 126 128 121 108 114 128 137 148 153 140 124 127 129 133 140 142 145 148 149 152 155 161 168 173 179 184 185 187 185 183 182 180 179 177 172 175 181 181 176 168 163 163
155 182 221 252 283 267 205 82 23 232 209 232 221 210 186 157 163 202 202 144 315 244 173 229 250 274 84 239 279 325 19 86 104 104 98 97 104 108 108 112 112 99 88 94 111 116 121 125 130 134 131 129 131 132 132 131 132 138 142 147 155 155 153 157 161 163 168 171 177 181 184 185 184 182 180 177 177 175 171 176 181 179 174 167 163 161
148 135 154 229 256 287 267 127 132 193 125 95 357 328 100 152 180 221 229 189 150 195 108 150 261 273 85 304 314 107 79 84 100 111 108 101 97 91 85 82 88 95 91 78 66 60 77 123 138 144 140 133 128 127 132 136 138 140 141 149 160 160 158 161 163 165 169 170 174 179 182 184 182 179 177 175 174 172 172 175 176 174 171 166 160 154
128 112 116 216 298 311 270 157 137 153 147 124 55 45 29 298 283 253 253 181 164 171 152 201 232 177 81 81 121 107 79 67 68 87 92 86 77 72 72 67 63 74 79 68 53 43 29 60 138 157 154 147 141 137 137 140 141 142 146 155 160 158 155 159 161 164 167 170 174 177 178 180 180 178 174 171 170 170 171 171 169 167 166 161 153 146
175 87 111 175 218 195 191 194 189 172 98 85 43 24 12 14 31 174 116 133 205 188 166 223 225 129 66 133 128 104 88 73 57 65 74 72 72 68 64 67 60 57 71 73 62 52 34 22 63 159 159 154 148 142 141 144 146 147 150 156 156 148 146 155 160 163 166 169 171 171 173 175 175 173 170 169 168 166 163 160 159 160 159 153 145 140
151 145 151 205 227 219 192 199 221 206 355 327 27 16 19 27 12 289 164 191 220 182 161 224 216 114 184 166 127 111 104 92 72 65 66 58 55 55 50 57 58 50 53 64 62 55 44 22 8 45 131 141 133 127 131 135 139 142 140 142 145 143 142 151 158 161 163 165 162 161 162 159 153 153 160 164 162 158 155 154 154 154 152 147 141 139
107 98 79 146 205 256 226 174 304 339 309 292 358 7 14 14 352 301 201 209 191 154 175 224 132 141 183 173 126 113 109 99 83 66 63 59 55 61 61 56 56 51 39 39 45 43 36 24 12 20 66 112 112 110 118 125 130 136 139 141 143 142 139 145 152 150 146 147 149 149 150 148 146 153 161 161 155 152 151 150 150 149 145 144 142 140
101 119 105 100 95 19 276 267 289 36 72 55 20 10 13 11 3 3 227 330 352 174 195 183 144 159 177 169 144 129 114 91 76 68 67 70 67 67 69 62 54 49 39 36 35 29 25 22 19 24 34 67 84 85 90 99 107 119 129 134 133 130 127 128 129 123 117 122 126 129 136 143 149 153 153 149 145 144 144 143 143 141 139 142 145 145
107 131 162 132 111 113 88 313 104 104 91 69 53 36 24 24 32 52 47 355 342 307 347 130 149 151 151 152 136 111 104 89 80 80 75 73 71 65 66 65 57 50 47 44 38 33 28 18 21 34 38 53 73 78 76 78 85 93 99 104 107 108 112 113 110 106 105 105 105 111 124 131 134 133 132 134 134 134 134 133 131 131 132 136 134 132
108 124 165 149 116 94 56 25 78 114 103 67 51 43 35 41 51 55 46 14 9 34 70 124 133 97 56 109 96 77 89 90 82 77 69 67 71 70 69 68 62 58 57 51 41 38 37 24 21 38 47 50 66 80 81 77 81 86 86 90 97 101 107 110 106 104 105 103 102 108 116 120 124 125 125 126 126 127 132 134 133 135 142 148 146 141
297 143 163 147 120 92 48 32 33 75 106 81 52 37 29 38 51 45 30 14 13 64 101 130 133 87 44 77 84 75 79 80 74 70 69 70 75 77 75 70 67 66 63 58 49 40 39 32 22 37 51 48 55 77 86 84 85 87 87 90 96 101 107 109 105 104 105 108 111 117 119 121 123 125 123 120 119 123 129 134 136 136 138 142 142 140
351 127 156 169 156 132 58 49 48 62 124 91 46 25 15 21 28 4 1 10 352 2 131 146 143 107 98 92 80 71 71 74 73 71 74 75 72 75 77 74 73 70 66 65 58 46 41 35 29 40 52 54 55 65 78 84 84 83 84 87 92 98 103 103 101 100 100 105 110 113 117 120 120 119 118 117 119 121 122 122 122 121 122 123 122 123
6 119 153 180 177 149 53 25 147 180 192 115 27 4 351 355 356 334 335 11 348 326 187 164 60 89 129 113 91 82 74 74 74 69 73 77 72 74 76 74 72 70 68 68 63 53 43 39 49 55 53 56 63 64 71 83 84 84 86 87 90 95 97 95 95 97 96 98 101 102 105 112 113 113 112 112 115 117 117 116 112 110 110 109 109 112
71 102 98 169 174 133 8 323 205 188 209 177 21 345 332 342 0 5 28 10 353 359 90 71 52 59 68 79 94 97 83 75 73 61 57 64 69 72 70 64 63 64 65 66 64 59 46 39 57 68 63 63 69 71 76 83 85 86 87 88 89 91 92 90 89 90 91 92 95 97 99 103 106 107 107 107 109 109 109 107 105 105 105 104 104 104
151 140 105 70 92 106 94 289 186 147 33 170 173 357 350 344 358 5 59 30 12 25 74 75 73 72 72 74 89 100 94 85 74 59 49 47 51 64 67 60 56 56 59 65 67 64 51 35 42 65 70 70 73 75 77 80 84 86 85 86 88 88 89 88 85 84 86 89 92 95 98 100 102 104 104 105 105 103 101 99 98 100 102 102 101 99
215 158 122 92 65 119 140 69 102 114 58 135 146 12 4 358 356 348 68 38 18 13 64 85 92 98 103 104 100 103 105 94 75 56 46 48 49 54 62 62 57 54 57 63 64 59 51 43 46 65 75 76 77 79 80 81 84 85 83 83 84 83 85 85 82 80 81 84 87 91 94 96 98 100 100 101 102 99 97 96 94 93 94 96 97 96
251 190 127 90 30 122 121 79 87 139 105 59 35 14 6 341 338 332 278 11 14 20 85 112 115 113 114 116 117 124 125 101 77 49 32 44 53 56 61 65 63 59 58 62 65 62 60 59 64 74 81 84 85 85 85 85 86 85 82 82 81 81 81 80 78 77 77 79 81 84 87 90 91 91 91 91 91 90 88 89 88 89 91 93 94 94
287 230 153 127 55 70 121 111 108 143 101 29 355 350 350 313 303 295 243 331 11 22 77 127 130 126 126 133 139 148 131 86 79 58 37 54 64 64 63 62 60 60 61 64 68 68 66 66 71 80 86 86 87 88 87 86 84 82 81 81 80 79 79 78 78 78 76 75 76 77 80 83 84 84 83 81 81 79 78 78 78 79 83 85 87 88
31 30 55 101 90 62 100 106 82 85 86 3 339 328 326 322 292 238 204 359 2 7 52 123 137 136 137 145 149 138 74 96 107 121 87 74 71 70 68 61 56 63 68 71 73 74 76 79 79 83 86 84 80 85 88 87 84 82 81 82 81 80 81 81 81 80 78 76 75 73 74 75 76 78 78 77 77 76 75 74 72 72 74 75 76 78
31 24 31 66 80 81 89 93 71 74 61 352 336 324 321 331 183 193 177 25 1 11 82 113 128 129 128 146 144 72 51 125 138 149 128 93 78 73 73 67 63 68 72 74 78 83 87 90 86 77 78 80 83 88 91 88 86 85 84 84 84 84 85 86 86 84 83 80 77 74 72 71 71 73 74 74 76 76 76 75 73 71 70 69 68 67
31 26 24 53 75 74 85 102 96 74 31 344 331 322 319 290 183 174 8 348 345 49 91 95 89 81 52 27 103 86 61 87 110 124 120 108 98 88 84 85 85 85 83 83 89 93 91 90 88 79 73 80 87 89 88 86 86 87 87 86 86 87 91 91 89 87 85 82 79 76 72 70 70 70 71 72 74 75 74 72 68 66 63 61 58 54
32 35 17 25 48 44 72 101 99 100 49 348 329 314 312 304 181 21 359 300 166 90 83 65 54 72 79 79 89 93 86 89 102 112 106 101 100 98 98 98 93 92 93 93 97 99 95 90 89 86 81 82 86 86 84 83 85 86 85 84 86 92 96 94 91 89 86 83 82 78 75 72 70 69 68 66 65 66 64 59 55 53 51 48 45 41
2 8 43 25 8 29 69 71 68 90 15 349 339 325 358 17 9 348 346 23 97 89 74 62 63 81 93 92 89 91 93 95 100 105 102 98 95 91 91 91 91 97 104 105 103 104 101 94 89 87 87 85 84 83 81 81 83 84 82 83 89 96 95 90 88 86 83 81 79 76 73 70 67 66 64 60 56 55 52 47 41 37 35 34 33 32
4 357 101 42 339 20 63 58 50 24 338 345 355 3 353 344 322 289 329 72 84 83 79 75 69 71 86 95 93 90 92 91 90 97 101 98 92 86 83 85 93 104 111 112 114 113 110 105 100 98 97 93 89 85 81 81 85 86 84 88 97 98 93 89 87 84 81 80 78 74 71 68 64 61 57 52 50 48 43 40 37 32 29 29 28 28
24 29 82 69 48 60 69 68 68 35 353 357 19 17 348 353 355 354 66 87 88 90 92 88 80 71 77 90 93 87 83 82 78 78 78 78 79 82 86 90 100 110 111 111 116 116 112 109 107 103 99 96 93 89 85 86 89 90 91 97 101 98 93 90 86 82 80 80 78 76 74 71 65 62 59 53 51 49 43 39 38 34 30 28 28 28
35 10 71 79 81 84 75 62 56 45 29 28 42 40 39 48 44 45 68 80 90 99 98 97 97 89 79 84 89 85 84 84 76 67 69 75 72 71 79 89 100 110 113 112 115 115 112 109 105 100 96 94 93 90 87 87 90 94 99 103 101 96 93 89 83 80 79 78 78 75 71 70 68 66 62 57 53 50 46 42 40 38 34 32 30 29
46 25 67 72 79 106 79 50 31 35 37 37 53 63 62 63 65 68 73 80 90 97 98 101 103 96 84 86 93 96 97 97 87 74 64 64 62 59 64 79 93 106 114 119 123 123 119 113 108 103 100 98 96 93 89 87 88 92 96 98 96 94 94 92 88 83 79 77 75 70 66 70 71 63 55 51 48 45 43 40 38 35 31 28 23 19
23 35 53 49 55 79 77 47 37 63 62 50 57 70 72 76 81 84 89 95 96 94 97 103 103 98 89 89 97 102 100 94 90 88 73 53 60 63 62 74 95 113 120 128 133 131 125 121 118 115 112 110 107 102 96 92 92 92 91 90 90 89 91 92 88 80 74 70 66 63 64 68 65 54 45 45 45 44 41 36 35 34 29 24 19 13
298 35 31 52 81 91 93 101 112 96 77 62 64 73 74 84 97 99 99 103 105 105 105 106 110 118 121 121 120 113 100 87 87 92 89 79 80 82 85 93 111 127 134 140 144 138 132 129 126 122 119 119 114 107 101 99 97 93 89 87 87 90 94 95 88 76 66 62 61 61 62 60 53 44 39 41 44 49 49 43 39 38 30 21 19 15
23 90 115 115 97 93 109 141 146 111 93 92 88 77 58 65 103 110 108 109 115 121 123 122 124 129 131 134 140 135 120 108 114 109 99 92 94 101 111 116 123 134 143 149 150 145 139 135 132 128 125 124 120 113 107 102 96 88 82 77 77 86 97 97 88 73 63 61 61 60 59 55 48 42 39 37 40 47 52 49 43 38 34 30 28 36
36 72 356 90 89 82 104 140 153 94 105 125 120 66 34 13 101 115 115 117 123 130 134 136 137 135 127 123 139 142 136 140 148 140 123 108 119 125 127 129 131 136 143 148 150 149 147 142 138 135 132 131 127 121 114 108 97 86 77 69 68 77 92 97 90 77 71 71 68 64 60 55 51 47 41 37 38 40 43 46 40 35 37 50 71 86